Volver al catálogo

COSMOS 886 DEB

ActivoLEO
NORAD 9723·DEBRIS·🇷🇺 Russia

Lanzado Dec 27, 1976 desde Baikonur Cosmodrome

Loading…

Próximos Pases (próximas 24 horas)

TLE

ActualizadoSource: Space-Track

Época: Sep 14, 2026, 09:48 UTC

1 09723U 76126U   26257.40859884  .00002328  00000-0  21823-2 0  9994
2 09723  65.7549  36.0651 0693829 245.9276 106.7689 13.07349218310539

Sigue COSMOS 886 DEB en tiempo real con AllMySat

Download on the App Store